FW4370 Weather Reports


Display with metric or nautical units.
time (UTC)temp
F
wind
direction
speed
MPH
gust
MPH
rain 1hr
in
rain 24hr
in
rain mn
in
humidity
%
barometer
mb
20260509034528 70 278 3.0 8.0 0.00 0.00 0.00 11 1005.1
20260509033026 70 242 1.0 5.0 0.00 0.00 0.00 10 1005.0
20260509031522 71 247 1.0 7.0 0.00 0.00 0.00 10 1004.7
20260509030023 72 283 2.0 6.0 0.00 0.00 0.00 10 1004.6
20260509024520 73 254 2.0 11.0 0.00 0.00 0.00 9 1004.4
20260509023019 74 211 2.0 9.0 0.00 0.00 0.00 9 1004.2
20260509021517 76 245 4.0 9.0 0.00 0.00 0.00 9 1004.0
20260509020014 77 231 6.0 12.0 0.00 0.00 0.00 8 1003.8
20260509014514 79 273 5.0 16.0 0.00 0.00 0.00 8 1003.6
20260509013010 80 230 7.0 14.0 0.00 0.00 0.00 8 1003.5
20260509011507 81 238 7.0 16.0 0.00 0.00 0.00 8 1003.5
20260509010015 82 255 9.0 15.0 0.00 0.00 0.00 8 1003.6
20260509004505 82 285 7.0 20.0 0.00 0.00 0.00 8 1003.6
20260509003002 81 250 6.0 16.0 0.00 0.00 0.00 8 1003.5
20260509001559 82 288 4.0 15.0 0.00 0.00 0.00 7 1003.6
20260509000059 81 210 6.0 14.0 0.00 0.00 0.00 7 1003.6
20260508234556 83 243 7.0 16.0 0.00 0.00 0.00 7 1003.6
20260508233101 84 295 5.0 21.0 0.00 0.00 0.00 7 1003.6
20260508231550 84 232 9.0 18.0 0.00 0.00 0.00 7 1003.7
20260508230057 85 227 8.0 16.0 0.00 0.00 0.00 7 1003.7
20260508224546 85 242 8.0 15.0 0.00 0.00 0.00 7 1003.9
20260508223042 85 267 6.0 18.0 0.00 0.00 0.00 7 1004.1
20260508221545 85 229 7.0 16.0 0.00 0.00 0.00 7 1004.2
20260508220036 86 218 7.0 14.0 0.00 0.00 0.00 6 1004.5
20260508214531 85 273 7.0 15.0 0.00 0.00 0.00 6 1004.6
20260508213029 86 284 7.0 19.0 0.00 0.00 0.00 6 1004.9
20260508211525 85 251 8.0 16.0 0.00 0.00 0.00 6 1005.1
20260508210021 86 250 8.0 18.0 0.00 0.00 0.00 6 1005.5
20260508204517 85 250 4.0 13.0 0.00 0.00 0.00 6 1005.9
20260508203014 85 286 4.0 13.0 0.00 0.00 0.00 6 1006.0
20260508201511 85 271 5.0 15.0 0.00 0.00 0.00 6 1006.1
20260508200007 85 275 4.0 14.0 0.00 0.00 0.00 7 1006.1
20260508194504 85 326 3.0 16.0 0.00 0.00 0.00 7 1006.1
20260508193115 84 313 3.0 12.0 0.00 0.00 0.00 7 1006.2
20260508191558 84 107 1.0 5.0 0.00 0.00 0.00 7 1006.5
20260508190051 83 214 1.0 11.0 0.00 0.00 0.00 7 1006.7
20260508184545 83 288 1.0 10.0 0.00 0.00 0.00 7 1006.6
20260508183039 84 244 2.0 12.0 0.00 0.00 0.00 8 1006.9
20260508181536 83 288 4.0 8.0 0.00 0.00 0.00 8 1007.2
20260508180033 82 271 2.0 10.0 0.00 0.00 0.00 8 1007.3
20260508174537 82 317 0.0 6.0 0.00 0.00 0.00 8 1007.5
20260508173025 81 323 2.0 5.0 0.00 0.00 0.00 9 1007.7
20260508171522 79 42 1.0 7.0 0.00 0.00 0.00 9 1007.8
20260508170020 79 304 2.0 7.0 0.00 0.00 0.00 10 1008.0
20260508164518 77 267 0.0 5.0 0.00 0.00 0.00 10 1008.1
20260508163007 76 276 1.0 5.0 0.00 0.00 0.00 11 1008.2
20260508161510 74 110 0.0 4.0 0.00 0.00 0.00 11 1008.4
20260508160001 74 107 1.0 5.0 0.00 0.00 0.00 12 1008.4
20260508154601 73 160 2.0 4.0 0.00 0.00 0.00 12 1008.5
20260508153156 75 208 0.0 2.0 0.00 0.00 0.00 12 1008.6
20260508151550 73 238 0.0 4.0 0.00 0.00 0.00 13 1008.7
20260508150046 72 105 0.0 0.0 0.00 0.00 0.00 14 1008.7
20260508144542 71 231 0.0 2.0 0.00 0.00 0.00 15 1008.6
20260508143038 70 52 0.0 1.0 0.00 0.00 0.00 16 1008.7
20260508141532 66 352 0.0 2.0 0.00 0.00 0.00 16 1008.9
20260508140027 64 295 0.0 1.0 0.00 0.00 0.00 16 1008.7
20260508134523 62 295 0.0 0.0 0.00 0.00 0.00 16 1008.7
20260508133026 62 50 0.0 0.0 0.00 0.00 0.00 16 1008.5
20260508131520 58 50 0.0 0.0 0.00 0.00 0.00 16 1008.7
20260508130015 54 50 0.0 0.0 0.00 0.00 0.00 15 1008.5
20260508124514 50 50 0.0 0.0 0.00 0.00 0.00 14 1008.4
20260508123011 50 50 0.0 0.0 0.00 0.00 0.00 14 1008.4
20260508121506 51 49 0.0 0.0 0.00 0.00 0.00 13 1008.4
20260508120100 53 50 0.0 1.0 0.00 0.00 0.00 13 1008.2
20260508114557 55 51 0.0 1.0 0.00 0.00 0.00 13 1008.2
20260508113053 55 30 0.0 1.0 0.00 0.00 0.00 12 1008.2
20260508111547 59 2 0.0 1.0 0.00 0.00 0.00 12 1008.1
20260508110044 60 282 0.0 3.0 0.00 0.00 0.00 12 1008.0
20260508104613 61 323 1.0 2.0 0.00 0.00 0.00 12 1008.1
20260508103045 61 279 0.0 1.0 0.00 0.00 0.00 12 1008.1
20260508101541 61 283 1.0 3.0 0.00 0.00 0.00 12 1008.1
20260508100036 60 281 1.0 2.0 0.00 0.00 0.00 12 1008.0
20260508094541 60 280 0.0 3.0 0.00 0.00 0.00 12 1007.9
20260508093030 60 267 1.0 3.0 0.00 0.00 0.00 12 1007.9
20260508091527 60 266 0.0 2.0 0.00 0.00 0.00 12 1008.1
20260508090023 61 264 0.0 4.0 0.00 0.00 0.00 12 1008.2
20260508084518 61 283 1.0 2.0 0.00 0.00 0.00 12 1008.3
20260508083015 62 283 0.0 2.0 0.00 0.00 0.00 11 1008.3
20260508081512 63 277 1.0 2.0 0.00 0.00 0.00 11 1008.6
20260508080008 63 272 1.0 4.0 0.00 0.00 0.00 11 1008.5
20260508074505 63 274 1.0 6.0 0.00 0.00 0.00 11 1008.5
20260508073003 63 257 1.0 6.0 0.00 0.00 0.00 11 1008.5
20260508071603 63 264 1.0 4.0 0.00 0.00 0.00 11 1008.6
20260508070140 63 253 0.0 4.0 0.00 0.00 0.00 11 1008.5
20260508064607 64 260 2.0 5.0 0.00 0.00 0.00 11 1008.6
20260508063052 65 238 2.0 7.0 0.00 0.00 0.00 11 1008.5
20260508061554 65 238 3.0 8.0 0.00 0.00 0.00 11 1008.5
20260508060047 65 223 3.0 9.0 0.00 0.00 0.00 11 1008.6
20260508054543 65 310 4.0 9.0 0.00 0.00 0.00 11 1008.6
20260508053037 65 248 3.0 7.0 0.00 0.00 0.00 11 1008.7
20260508051531 65 263 3.0 7.0 0.00 0.00 0.00 11 1008.8
20260508050023 65 288 2.0 6.0 0.00 0.00 0.00 11 1008.9
20260508044518 65 240 3.0 8.0 0.00 0.00 0.00 11 1008.7
20260508043012 66 220 3.0 8.0 0.00 0.00 0.00 11 1008.7
20260508041508 66 278 3.0 6.0 0.00 0.00 0.00 10 1008.7
20260508040100 66 264 3.0 8.0 0.00 0.00 0.00 10 1008.5